Theta_e
312 318 324 327 329 329 328 328 329 328 323 321 318 313 309 306 305 303 301 299 299 296 297 296 295 296 295 294 295 294 293 293 291 290 291 291 290 290 291 291 291 290 291
310 313 319 322 323 324 324 323 321 320 318 316 312 309 306 304 303 301 298 297 296 295 295 294 293 293 293 293 293 292 291 290 290 287 289 289 289 290 289 289 289 289 289
308 309 310 315 316 318 319 315 313 310 309 307 307 304 303 301 300 299 296 295 294 294 293 292 291 291 290 291 291 290 290 289 289 287 286 288 288 288 286 287 287 287 289
306 306 307 309 312 309 305 305 304 304 302 302 302 303 297 298 295 294 293 293 292 292 292 291 291 290 289 289 288 288 288 287 287 286 286 286 286 286 285 284 283 284 284
304 304 304 305 307 306 301 299 297 298 299 297 296 293 294 292 290 290 290 290 289 289 289 288 289 288 289 289 288 287 287 286 286 285 284 285 284 283 282 283 282 283 284
303 302 300 300 299 298 296 293 294 291 291 292 291 291 289 287 292 292 290 288 287 287 286 286 285 285 287 288 288 289 289 285 284 284 284 283 282 282 283 283 282 280 278
301 297 293 292 292 292 290 290 289 289 289 289 288 289 287 288 291 291 289 287 287 286 285 285 284 285 286 286 287 287 286 287 286 285 283 283 282 283 283 282 281 281 280
297 292 290 290 289 288 288 288 287 287 288 288 288 287 287 288 291 290 288 287 286 286 285 285 284 285 286 285 285 285 285 285 285 285 284 284 285 285 284 283 282 282 283
294 292 290 289 288 287 287 287 286 287 287 287 287 287 287 287 290 289 287 286 285 284 285 286 285 285 286 287 285 284 284 284 287 287 287 288 288 288 287 282 278 280 279
293 292 291 289 288 287 287 286 286 287 286 286 286 287 287 287 289 289 287 285 284 284 284 285 284 285 286 287 285 283 281 283 283 283 283 284 285 285 287 283 280 279 279
290 290 288 288 288 288 287 286 286 285 285 285 285 286 286 287 287 289 288 285 284 284 283 283 284 286 286 287 287 284 284 284 283 281 281 280 281 282 282 283 284 282 279
288 287 287 287 287 286 286 285 285 285 285 285 285 285 285 285 287 288 288 287 287 284 284 284 284 285 286 286 286 286 287 286 284 280 279 279 279 279 280 282 282 281 282
286 286 286 286 286 286 285 285 284 285 285 284 284 283 283 284 286 288 288 287 287 285 285 285 285 286 286 286 286 286 284 283 282 280 278 278 279 279 278 279 280 281 280
285 285 285 285 285 285 285 285 285 285 284 283 284 283 283 282 283 285 286 287 285 285 284 284 284 284 284 284 282 284 282 282 280 278 277 277 277 276 274 277 277 277 276
285 285 285 285 285 284 284 285 285 285 286 284 285 285 283 281 283 285 286 285 285 285 283 283 281 281 281 281 281 281 280 278 275 276 276 274 274 274 273 274 273 275 273
284 284 285 285 284 284 283 283 283 285 287 287 287 286 284 285 286 286 286 287 287 286 281 279 279 279 279 280 279 279 277 275 276 275 273 272 271 271 271 271 271 271 272
285 284 284 284 284 283 283 282 279 280 284 285 284 286 286 284 285 286 286 287 287 285 280 279 279 279 279 279 278 277 275 275 273 272 270 270 270 269 268 269 270 269 269
284 283 284 284 284 284 283 283 283 281 280 280 284 284 285 285 284 285 286 286 282 283 280 278 278 279 278 277 275 274 273 271 269 269 269 268 267 267 267 268 268 265 266
284 284 284 284 284 284 283 283 283 283 283 283 280 283 284 285 285 284 286 282 281 280 281 281 279 277 276 274 273 271 270 270 269 267 266 265 265 266 265 266 266 265 264
283 281 283 284 283 282 282 282 282 283 283 284 279 281 281 281 280 280 281 282 281 281 281 278 276 275 273 272 271 270 269 268 266 264 264 265 265 266 265 263 263 264 263
280 280 277 282 282 281 281 281 281 281 280 280 281 280 282 279 280 280 280 280 281 281 280 277 275 273 271 271 270 269 268 268 267 266 266 266 265 264 263 264 263 263 262
276 277 276 277 278 278 278 279 279 279 278 278 278 278 280 278 277 279 280 280 280 279 277 275 273 272 270 269 268 268 267 266 267 266 266 265 265 264 264 264 263 264 264
272 273 273 273 273 272 273 273 273 274 274 275 275 275 272 274 275 275 276 276 275 273 272 272 270 269 269 268 268 268 267 266 266 267 265 264 263 263 264 263 263 263 262
270 270 270 271 271 270 271 271 272 270 269 271 272 272 271 272 272 273 275 274 273 272 270 268 268 268 267 266 266 266 266 267 267 266 265 264 264 264 263 263 263 262 262
267 267 267 268 268 268 269 270 270 270 271 271 270 270 270 270 269 270 271 271 270 269 268 267 265 265 265 265 265 264 264 265 264 264 263 262 262 262 262 262 261 261 261
265 265 265 265 265 265 266 266 266 267 266 267 267 267 267 267 266 267 266 267 266 266 266 265 265 264 264 264 264 264 264 264 263 263 261 261 260 260 261 260 260 260 259
Wind_Speed
12 12 13 14 15 15 13 13 12 11 11 12 12 12 11 10 10 11 9 9 10 8 7 8 8 8 5 4 3 3 3 1 2 3 2 2 1 3 4 4 4 5 5
10 10 11 11 9 14 13 10 6 9 10 11 12 12 12 11 11 13 13 10 11 11 10 9 9 6 7 6 4 4 3 3 2 3 2 2 0 2 3 5 4 5 5
9 9 10 12 10 11 9 7 8 8 9 9 11 13 13 13 12 11 11 12 10 10 10 10 9 9 6 5 6 5 4 3 2 1 1 1 2 1 3 3 4 4 5
7 8 7 7 7 4 4 5 7 8 10 10 10 11 12 12 11 10 11 11 10 8 7 8 8 8 8 7 5 4 4 3 3 2 1 1 2 1 2 2 4 3 6
8 7 7 5 5 5 5 6 5 8 9 9 11 9 10 11 9 12 11 11 12 10 7 6 6 6 10 8 6 5 5 4 3 2 2 1 1 1 2 2 3 5 7
9 9 6 5 3 4 5 5 7 6 7 10 10 12 11 5 17 16 15 12 10 10 10 7 7 8 8 9 6 8 6 5 3 2 2 2 2 1 1 2 4 6 4
8 5 6 7 7 6 5 6 6 7 7 8 8 11 10 10 18 18 17 10 10 10 10 9 8 5 7 6 8 9 7 6 4 3 3 3 2 2 1 2 3 3 5
6 6 7 7 7 8 7 6 6 6 8 9 9 9 10 9 18 19 16 10 8 9 9 9 9 9 7 6 6 5 5 5 4 3 4 4 4 2 3 2 3 5 5
7 7 8 8 8 9 10 11 8 7 6 7 7 10 11 11 18 18 13 9 8 7 7 8 8 9 11 14 6 6 4 3 6 7 8 9 11 12 9 1 2 4 6
9 8 8 8 8 8 8 9 7 9 7 7 8 7 10 11 17 18 12 7 8 6 5 5 7 7 13 16 7 5 5 4 4 3 2 3 6 6 7 2 1 4 5
6 7 7 7 8 8 8 6 8 9 9 8 8 6 8 10 13 19 16 8 7 7 6 6 5 13 14 16 13 6 6 3 4 3 2 2 2 3 3 4 2 3 5
6 5 6 5 6 4 8 6 6 8 9 9 9 7 5 6 9 16 16 10 11 7 7 5 5 15 15 15 11 11 12 9 3 2 2 2 2 2 2 1 4 7 6
5 5 6 6 5 8 7 8 7 7 7 7 7 7 7 5 6 15 15 13 11 4 3 5 11 15 16 13 16 15 10 4 3 6 4 3 2 1 2 3 6 7 7
5 6 6 6 6 5 5 6 6 7 6 5 6 6 6 6 5 4 5 7 8 7 6 5 7 8 10 9 5 8 4 4 5 5 4 2 1 1 1 2 4 5 6
4 5 6 5 7 6 4 5 4 2 5 7 7 7 9 8 9 13 11 8 7 7 6 4 4 5 6 7 6 6 5 4 4 5 4 3 2 1 2 1 1 4 6
4 4 4 5 5 5 6 6 9 5 7 7 8 8 5 5 11 17 17 16 15 18 5 6 7 7 8 8 8 7 6 6 5 4 3 3 2 2 2 1 1 4 6
2 2 3 4 5 6 6 6 6 4 5 7 6 8 9 8 10 16 19 17 17 16 7 8 8 8 8 7 6 6 6 5 4 3 3 3 3 2 2 3 4 3 4
3 4 3 2 3 4 5 5 5 7 6 5 10 10 13 14 12 14 16 14 8 13 9 8 9 8 7 6 6 5 4 3 3 4 4 3 3 3 3 5 4 2 3
2 2 1 1 3 4 4 4 4 4 4 4 2 6 10 13 12 15 18 9 9 10 10 10 8 7 6 5 5 4 4 5 4 3 3 2 2 4 4 4 3 4 4
3 3 1 2 2 3 2 3 3 5 5 5 5 6 4 6 7 8 9 10 10 9 8 7 7 6 5 6 6 6 5 5 4 3 3 3 4 4 4 3 3 3 3
3 3 5 2 1 2 2 4 4 4 5 5 6 5 11 8 8 9 9 10 10 10 8 6 6 6 6 6 6 6 6 6 6 6 6 6 5 5 3 4 3 3 3
4 3 3 3 2 2 2 2 2 3 4 4 4 3 13 7 7 8 8 8 8 6 5 6 7 7 8 8 8 7 7 7 6 6 6 6 6 6 5 5 4 6 5
4 4 3 2 2 2 1 2 2 3 3 4 4 3 3 6 6 7 7 5 4 4 4 5 6 6 6 6 7 7 8 9 8 7 7 7 6 6 7 7 7 6 5
4 4 4 3 2 3 2 2 2 2 3 3 3 3 3 4 5 6 5 5 5 5 5 5 6 8 6 6 5 5 5 5 5 7 8 7 8 8 6 7 7 7 6
5 5 4 4 4 4 4 4 3 4 4 4 4 4 3 4 4 4 5 4 5 4 5 5 5 7 10 10 9 9 9 11 7 6 5 7 8 9 7 6 7 7 8
4 4 4 4 4 3 4 4 4 4 4 4 4 4 4 5 4 3 3 3 4 4 5 4 6 9 9 9 10 10 11 12 10 10 8 7 7 7 6 8 9 7 7
Wind_Direction
225 225 225 222 217 218 221 217 209 186 171 173 171 153 145 144 142 135 135 136 130 128 133 140 136 135 136 140 128 128 120 123 135 104 85 93 322 344 343 326 307 314 327
220 219 226 230 237 216 212 208 189 179 170 172 159 151 147 152 155 151 147 153 145 152 146 139 141 141 142 146 149 137 132 77 111 163 153 164 85 306 324 292 337 326 326
231 216 214 216 212 223 212 172 161 157 158 158 155 151 154 154 152 152 148 145 152 149 148 149 149 150 149 152 145 143 129 133 145 173 157 135 226 130 281 294 313 302 320
227 236 238 217 210 171 141 150 152 157 154 158 161 160 148 148 144 143 141 139 134 134 131 134 147 153 152 147 134 138 131 133 178 193 172 227 220 161 241 309 323 349 321
201 207 222 240 217 176 145 143 141 152 162 149 145 138 140 145 137 146 137 135 133 128 123 123 129 133 133 145 143 157 162 168 179 167 195 213 243 319 340 292 319 317 318
207 190 181 187 168 150 144 142 149 135 143 141 152 144 149 129 144 147 137 138 137 137 140 133 130 127 137 137 136 162 185 170 157 171 178 204 232 253 250 299 323 341 345
203 159 165 156 154 154 140 139 145 142 136 140 134 137 136 131 144 138 132 136 142 149 149 144 136 156 141 145 174 182 191 194 207 183 189 226 273 258 330 291 305 300 291
190 159 164 165 155 141 142 142 134 143 148 155 146 145 127 144 147 140 136 135 139 145 149 142 162 159 160 166 186 192 202 204 213 218 220 243 267 270 252 244 285 285 277
191 180 170 168 165 162 160 157 146 152 153 150 150 139 140 144 151 149 137 139 135 142 141 158 167 157 176 190 191 197 199 214 234 240 258 270 278 283 283 326 280 311 306
187 184 169 165 164 178 168 157 152 148 153 146 130 141 138 141 154 158 143 138 135 137 137 166 177 160 186 197 198 193 209 215 194 232 251 288 296 292 300 244 233 272 296
158 154 159 160 169 172 158 158 152 144 139 143 136 131 134 151 163 166 158 153 155 157 174 177 184 194 200 202 209 203 218 178 227 201 222 237 225 255 259 271 246 281 276
151 153 145 149 141 139 150 137 148 149 155 151 144 137 128 137 159 173 170 164 161 161 185 174 175 199 205 210 217 228 232 234 173 204 224 236 229 240 233 287 306 286 275
126 136 142 131 140 140 152 153 152 166 168 162 160 156 157 148 163 177 182 174 173 164 155 168 187 200 213 224 230 231 233 174 221 245 231 235 210 179 52 314 276 274 273
137 136 132 139 141 144 137 154 164 169 174 169 171 168 154 155 157 160 173 180 189 194 170 198 193 198 210 217 219 235 200 200 215 224 229 229 256 239 224 242 281 291 288
122 131 140 146 157 149 148 167 175 172 185 175 175 167 163 177 195 183 178 178 186 182 164 173 191 205 215 219 215 212 197 183 194 208 217 207 218 221 238 235 249 275 276
114 133 156 155 161 162 154 125 56 104 130 137 145 158 140 125 180 193 201 202 191 183 172 197 210 213 219 217 213 206 199 200 206 195 183 192 203 205 225 249 266 255 270
87 125 147 157 167 169 168 170 156 74 101 129 142 178 175 169 171 195 211 208 198 189 208 211 214 215 220 217 215 208 204 203 167 177 188 190 181 186 202 229 237 237 258
98 138 149 162 168 170 172 172 170 179 184 191 211 201 209 204 195 209 217 199 196 213 217 218 222 218 211 207 202 203 192 175 184 196 204 188 175 180 214 230 230 215 246
112 134 133 148 162 162 154 157 171 175 194 205 149 220 210 219 212 213 211 205 204 210 220 226 217 208 205 198 195 181 182 201 196 183 195 198 205 200 217 225 224 228 233
32 24 146 151 154 168 173 196 199 211 210 210 190 209 167 172 200 203 215 216 215 222 217 207 210 205 200 194 193 189 184 195 192 190 194 193 200 226 226 200 203 235 235
16 37 5 357 268 239 217 222 219 215 220 222 230 203 201 206 221 218 213 219 224 227 218 208 191 197 202 200 199 187 195 207 197 197 196 202 202 210 216 231 201 209 234
20 18 15 1 1 328 301 288 266 260 259 255 255 226 233 218 236 230 225 224 225 217 204 199 203 203 197 192 197 185 195 198 205 198 204 202 200 202 216 226 223 224 225
14 8 12 8 349 343 296 272 263 257 260 257 250 233 210 240 232 236 242 239 222 196 200 207 212 210 193 195 196 191 198 204 199 190 190 200 198 207 210 217 219 223 222
10 7 357 347 353 336 314 303 290 264 277 285 271 244 237 238 244 261 251 229 222 218 202 205 212 218 201 194 197 195 200 200 186 190 190 194 204 202 210 215 213 218 229
9 2 358 354 347 337 329 314 304 300 298 290 279 275 265 261 261 260 262 248 241 226 214 205 199 206 210 201 195 191 192 205 196 182 188 208 214 206 208 208 218 220 218
7 1 351 338 330 329 322 317 314 313 307 306 300 293 291 284 280 276 271 252 239 236 236 215 212 211 207 215 212 206 200 202 203 200 193 193 202 212 216 219 218 223 225